[[{"header":{"parameterUnit":"m.s-1","parameterCategory":1,"la1":30.2991,"la2":30.254,"lo1":-89.0895,"lo2":-89.0444,"dy":0.0017,"dx":0.0017,"nx":28,"ny":28,"refTime":"2023-11-01T03:00:00:Z","depth":0,"parameterNumber":2,"parameterNumberName":"U-component_of_WINDS"},"data":[0,0,0,0,0,0,0,0,0,0,0,0,0,0,0,0,0,0,0,0,0,0,0,0,0,0,0,0,0,0,0,0,0,0,0,0,0,0,0,0,0,0,0,0,0,0,0,0,0,0,0,0,0,0,0,0,0,0,-3.951,-3.9511,0,-3.9567,-3.9568,-3.9569,-3.9427,-3.9422,-3.9418,-3.9413,-3.9471,-3.9477,-3.9482,0,0,0,0,0,0,0,0,0,0,0,0,0,-3.9277,-3.9282,-3.951,-3.9511,-3.9512,-3.9567,-3.9568,-3.9569,-3.9427,-3.9422,-3.9417,-3.9411,-3.9469,-3.9476,-3.9483,0,0,0,0,0,0,0,0,0,0,0,0,0,-3.936,-3.9283,-3.951,-3.9448,-3.9443,-3.9567,-3.9568,-3.9569,-3.9429,-3.9422,-3.9415,-3.9409,-3.9467,-3.9475,-3.9484,-3.9671,0,0,-3.951,-3.9514,0,0,0,0,0,0,0,0,-3.9356,-3.9369,-3.9456,-3.9452,-3.9447,-3.9483,-3.9507,-3.9603,-3.943,-3.9434,-3.9413,-3.9406,-3.9481,-3.9487,-3.9513,-3.9673,-3.9676,-3.9511,-3.9516,-3.952,-3.9522,0,0,0,0,0,0,0,-3.935,-3.9366,-3.9533,-3.9458,-3.9452,-3.9416,-3.9421,-3.9524,-3.9494,-3.9433,-3.9423,-3.9432,-3.9477,-3.9505,-3.9513,-3.9677,-3.951,-3.9518,-3.9523,-3.9527,-3.9991,-3.9998,0,0,0,0,0,0,-3.9353,-3.9362,-3.9531,-3.9534,-3.9384,-3.9426,-3.9431,-3.9478,-3.9493,-3.9488,-3.9437,-3.9425,-3.9494,-3.9503,-3.9515,-3.9733,-3.9519,-3.9527,-3.9532,-3.9984,-3.9993,-4.0001,0,0,0,0,0,0,-3.9348,-3.9369,-3.9529,-3.9446,-3.9463,-3.9437,-3.9491,-3.9483,-3.9511,-3.9496,-3.949,-3.9472,-3.9489,-3.9503,-3.9633,-3.9733,-3.9531,-3.9539,-3.9976,-3.9987,-3.9997,-4.0173,0,0,0,0,0,0,-3.9342,-3.9368,-3.944,-3.9448,-3.9468,-3.9647,-3.9498,-3.9489,-3.9526,-3.9511,-3.9527,-3.9523,-3.9485,-3.9621,-3.9641,-3.9742,-3.9546,-3.9966,-3.998,-3.9993,-4.0159,-4.0189,-4.0215,0,0,0,0,0,-3.9334,-3.9488,-3.9444,-3.9466,-3.9557,-3.9653,-3.9664,-3.9617,-3.9535,-3.9606,-3.9596,-3.9522,-3.9719,-3.9635,-3.9657,-3.9762,-3.996,-3.9976,-3.9992,-4.0146,-4.0183,-4.0214,0,0,0,0,0,0,-3.9492,-3.9488,-3.944,-3.96,-3.9628,-3.9629,-3.9718,-3.9659,-3.971,-3.9693,-3.9632,-3.9637,-3.9778,-3.9782,-3.9689,-3.9942,-3.9825,-3.9847,-3.9935,-3.997,-3.9997,-3.9994,-3.9553,0,0,0,0,0,-3.9546,-3.9625,-3.9616,-3.9759,-3.9775,-3.9745,-3.9784,-3.9746,-3.9772,-3.9783,-3.9782,-3.981,-3.9877,-3.9924,-3.9985,-4.0158,-4.0159,-4.024,-4.0269,-4.0292,-4.0311,-4.0402,-4.0437,-4.0054,-4.0054,-4.0053,0,0,-3.9657,-3.9664,-3.9718,-3.9791,-3.9808,-3.989,-3.9755,-3.9848,-3.9909,-3.9797,-3.9919,-3.992,-3.9947,-4.0099,-4.0165,-4.0107,-4.0417,-4.0313,-4.0331,-4.0338,-4.0422,-4.0458,-4.0491,-4.0065,-4.0063,-4.0061,0,0,-3.9902,-3.9916,-4.0036,-4.0055,-4.0083,-4.0061,-4.009,-4.0099,-4.0095,-4.0217,-4.0135,-4.0205,-4.0323,-4.0345,-4.0372,-4.0623,-4.0557,-4.0645,-4.0793,-4.0882,-4.0912,-4.0938,-4.1027,-4.106,-4.0664,-4.0665,-4.0665,0,-4.0037,-4.0159,-4.0105,-4.0204,-4.0237,-4.0139,-4.0259,-4.0281,-4.0327,-4.0352,-4.0285,-4.0431,-4.0442,-4.0597,-4.0658,-4.0684,-4.0714,-4.0643,-4.0912,-4.0938,-4.0962,-4.1046,-4.108,-4.0675,-4.0674,-4.0673,-4.0672,0,-4.0323,-4.0408,-4.0501,-4.0548,-4.0592,-4.0702,-4.0663,-4.0714,-4.0671,-4.0656,-4.078,-4.079,-4.0851,-4.0885,-4.0844,-4.1034,-4.0997,-4.0922,-4.0803,-4.101,-4.1088,-4.112,-4.069,-4.0686,-4.0683,-4.0681,0,0,-4.0671,-4.0685,-4.072,-4.074,-4.0762,-4.0826,-4.093,-4.099,-4.1034,-4.1069,-4.1153,-4.1255,-4.1185,-4.1216,-4.1176,-4.1254,-4.1452,-4.1169,-4.1169,-4.1221,-4.166,-4.1716,-4.1755,-4.1407,-4.1413,-4.1418,-4.1658,0,-4.0912,-4.1091,-4.1045,-4.1222,-4.1299,-4.1207,-4.1297,-4.1319,-4.1308,-4.1371,-4.1357,-4.143,-4.1333,-4.1351,-4.1424,-4.1412,-4.1539,-4.1394,-4.1485,-4.1489,-4.1482,-4.1796,-4.1855,-4.2082,-4.1688,-4.1693,-4.1697,0,-4.1219,-4.1265,-4.145,-4.1458,-4.1489,-4.1571,-4.1621,-4.1683,-4.1706,-4.1691,-4.1725,-4.1669,-4.177,-4.165,-4.1788,-4.169,-4.1724,-4.1724,-4.1732,-4.1739,-4.1606,-4.1811,-4.2152,-4.2187,-4.1745,-4.1741,-4.1737,0,-4.1453,-4.1561,-4.1686,-4.1705,-4.1718,-4.1777,-4.1785,-4.1802,-4.184,-4.1883,-4.1907,-4.1962,-4.1993,-4.2036,-4.1995,-4.1912,-4.2139,-4.2016,-4.2129,-4.2131,-4.2182,-4.2179,-4.2534,-4.2204,-4.2204,-4.2203,-4.2203,0,-4.1728,-4.1845,-4.1791,-4.1868,-4.1996,-4.194,-4.2068,-4.2065,-4.208,-4.2154,-4.2076,-4.2147,-4.2089,-4.2155,-4.2124,-4.2242,-4.2256,-4.2246,-4.2237,-4.2254,-4.2255,-4.2275,-4.2258,-4.2212,-4.221,-4.2208,-4.2207,0,-4.2012,-4.1981,-4.211,-4.2111,-4.2114,-4.2208,-4.2208,-4.2278,-4.226,-4.2354,-4.2372,-4.2344,-4.2417,-4.238,-4.2456,-4.2435,-4.2587,-4.2557,-4.258,-4.2572,-4.2687,-4.2676,-4.3067,-4.3115,-4.2755,-4.2759,-4.2762,0,-4.2189,-4.2277,-4.2287,-4.2331,-4.2344,-4.2416,-4.2454,-4.2402,-4.2445,-4.2477,-4.2544,-4.2609,-4.2659,-4.2779,-4.2765,-4.2822,-4.2791,-4.2924,-4.28,-4.2813,-4.2793,-4.2788,-4.2796,-4.295,-4.2954,-4.2957,-4.296,0,-4.2508,-4.2487,-4.2546,-4.26,-4.2648,-4.2687,-4.272,-4.276,-4.2709,-4.2761,-4.2834,-4.2873,-4.2949,-4.3015,-4.3064,-4.3071,-4.3008,-4.2999,-4.3028,-4.3046,-4.3056,-4.3052,-4.2648,-4.2991,-4.2988,-4.2985,-4.2984,-4.2983,-4.2743,-4.2816,-4.2834,-4.2902,-4.2921,-4.2953,-4.3019,-4.3008,-4.3069,-4.3127,-4.3092,-4.3178,-4.3197,-4.3256,-4.3271,-4.3336,-4.3283,-4.3326,-4.3336,-4.3347,-4.3363,-4.3046,-4.3345,-4.3344,-4.3343,-4.3342,-4.3342,0,-4.3057,-4.3063,-4.3126,-4.3174,-4.3227,-4.3162,-4.3195,-4.3243,-4.3319,-4.3343,-4.3393,-4.3476,-4.3539,-4.3529,-4.3586,-4.3641,-4.3613,-4.3657,-4.3653,-4.3655,-4.3407,-4.3376,-4.3679,-4.3679,-4.3679,-4.3679,-4.3678,-4.3678,-4.3226,-4.3346,-4.3328,-4.3456,-4.3461,-4.3544,-4.3568,-4.3597,-4.3615,-4.3712,-4.3764,-4.3757,-4.3766,-4.3823,-4.3877,-4.3872,-4.3897,-4.3952,-4.3937,-4.3706,-4.3673,-4.3641,-4.3611,-4.3958,-4.3959,-4.4179,-4.4181,-4.4183]},{"header":{"parameterUnit":"m.s-1","parameterCategory":1,"la1":30.2991,"la2":30.254,"lo1":-89.0895,"lo2":-89.0444,"dy":0.0017,"dx":0.0017,"nx":28,"ny":28,"refTime":"2023-11-01T03:00:00:Z","depth":0,"parameterNumber":3,"parameterNumberName":"V-component_of_WINDS"},"data":[0,0,0,0,0,0,0,0,0,0,0,0,0,0,0,0,0,0,0,0,0,0,0,0,0,0,0,0,0,0,0,0,0,0,0,0,0,0,0,0,0,0,0,0,0,0,0,0,0,0,0,0,0,0,0,0,0,0,-6.5684,-6.5685,0,-6.5766,-6.5767,-6.5768,-6.5659,-6.5655,-6.5651,-6.5648,-6.5726,-6.5732,-6.5738,0,0,0,0,0,0,0,0,0,0,0,0,0,-6.5424,-6.543,-6.5684,-6.5685,-6.5686,-6.5766,-6.5767,-6.5768,-6.566,-6.5655,-6.565,-6.5646,-6.5724,-6.5731,-6.5738,0,0,0,0,0,0,0,0,0,0,0,0,0,-6.5525,-6.5431,-6.5683,-6.5641,-6.5638,-6.5766,-6.5767,-6.5768,-6.5661,-6.5655,-6.5649,-6.5644,-6.5722,-6.573,-6.5739,-6.591,0,0,-6.5765,-6.5769,0,0,0,0,0,0,0,0,-6.5519,-6.5534,-6.5647,-6.5645,-6.5641,-6.5696,-6.5704,-6.5816,-6.5662,-6.5652,-6.5647,-6.5641,-6.5721,-6.5729,-6.5757,-6.5913,-6.5917,-6.5766,-6.5771,-6.5775,-6.5777,0,0,0,0,0,0,0,-6.5512,-6.553,-6.5716,-6.5648,-6.5645,-6.5616,-6.5624,-6.5725,-6.5718,-6.5653,-6.5645,-6.5656,-6.5718,-6.5749,-6.5758,-6.5918,-6.5766,-6.5773,-6.5779,-6.5782,-6.6214,-6.622,0,0,0,0,0,0,-6.5511,-6.5525,-6.5713,-6.5718,-6.5565,-6.5625,-6.5634,-6.5685,-6.5717,-6.5716,-6.5661,-6.5651,-6.5737,-6.5748,-6.5761,-6.596,-6.5775,-6.5783,-6.5788,-6.6208,-6.6215,-6.6222,0,0,0,0,0,0,-6.5506,-6.5529,-6.571,-6.562,-6.5641,-6.5636,-6.5694,-6.5689,-6.572,-6.5724,-6.5721,-6.5695,-6.5733,-6.5748,-6.5873,-6.5961,-6.5787,-6.5795,-6.62,-6.621,-6.6219,-6.6362,0,0,0,0,0,0,-6.5499,-6.5528,-6.5595,-6.5622,-6.5646,-6.5824,-6.5699,-6.5695,-6.5736,-6.5724,-6.5754,-6.5754,-6.573,-6.5861,-6.5882,-6.597,-6.5801,-6.6192,-6.6205,-6.6216,-6.6349,-6.6375,-6.6397,0,0,0,0,0,-6.549,-6.5631,-6.5599,-6.5622,-6.573,-6.5829,-6.5842,-6.5814,-6.5744,-6.5809,-6.5811,-6.5753,-6.5949,-6.5874,-6.5897,-6.5989,-6.6186,-6.6201,-6.6215,-6.6338,-6.637,-6.6397,0,0,0,0,0,0,-6.5613,-6.5634,-6.5598,-6.5753,-6.579,-6.5811,-6.5893,-6.5848,-6.5905,-6.589,-6.585,-6.5858,-6.5991,-6.6002,-6.5919,-6.6154,-6.6056,-6.6075,-6.6142,-6.6172,-6.6195,-6.6189,-6.5809,0,0,0,0,0,-6.5658,-6.574,-6.5753,-6.5888,-6.5909,-6.5898,-6.594,-6.5915,-6.5951,-6.5965,-6.5976,-6.6012,-6.608,-6.6127,-6.6191,-6.6351,-6.6354,-6.6425,-6.6449,-6.6469,-6.6485,-6.6567,-6.6598,-6.6269,-6.6269,-6.6268,0,0,-6.5752,-6.5774,-6.5827,-6.5913,-6.5939,-6.6021,-6.5912,-6.6004,-6.6064,-6.5979,-6.6097,-6.6106,-6.6142,-6.6285,-6.6348,-6.6298,-6.6577,-6.6487,-6.6502,-6.6508,-6.6585,-6.6616,-6.6644,-6.6278,-6.6277,-6.6275,0,0,-6.5965,-6.5991,-6.6105,-6.6133,-6.6174,-6.6166,-6.6193,-6.622,-6.6223,-6.6342,-6.6279,-6.6348,-6.6469,-6.6497,-6.6527,-6.6748,-6.6695,-6.677,-6.6894,-6.6975,-6.7001,-6.7023,-6.71,-6.7128,-6.6787,-6.6787,-6.6787,0,-6.6076,-6.62,-6.6168,-6.6265,-6.6303,-6.6231,-6.6344,-6.6372,-6.6432,-6.6458,-6.6403,-6.6551,-6.6571,-6.6717,-6.6771,-6.6799,-6.6826,-6.6765,-6.7,-6.7022,-6.7043,-6.7115,-6.7144,-6.6796,-6.6795,-6.6794,-6.6793,0,-6.6332,-6.6419,-6.6506,-6.6566,-6.6614,-6.6718,-6.67,-6.6752,-6.6722,-6.6718,-6.6837,-6.6859,-6.6924,-6.6957,-6.6929,-6.7099,-6.7067,-6.7007,-6.6906,-6.7084,-6.7151,-6.7178,-6.6808,-6.6805,-6.6802,-6.68,0,0,-6.6625,-6.6666,-6.6698,-6.6723,-6.6762,-6.6827,-6.6927,-6.6993,-6.7036,-6.7079,-6.716,-6.7263,-6.7207,-6.7241,-6.7214,-6.7285,-6.7456,-6.7215,-6.7216,-6.7257,-6.7641,-6.7685,-6.7718,-6.7422,-6.7427,-6.7431,-6.7637,0,-6.6835,-6.701,-6.6984,-6.7151,-6.7229,-6.7161,-6.7247,-6.7279,-6.7278,-6.7342,-6.7339,-6.7412,-6.7334,-6.7354,-6.7421,-6.7421,-6.7532,-6.7406,-6.7493,-6.7497,-6.7485,-6.7753,-6.78,-6.7994,-6.7663,-6.7668,-6.7671,0,-6.7105,-6.7159,-6.7334,-6.7359,-6.739,-6.7469,-6.7525,-6.7588,-6.7622,-6.7615,-6.7654,-6.7613,-6.771,-6.7609,-6.7739,-6.7654,-6.7688,-6.7693,-6.77,-6.7705,-6.7593,-6.7763,-6.8055,-6.8083,-6.7712,-6.7709,-6.7706,0,-6.7297,-6.7413,-6.7533,-6.7557,-6.7589,-6.7645,-6.7661,-6.7689,-6.7729,-6.7778,-6.7803,-6.7863,-6.7894,-6.794,-6.7916,-6.7845,-6.8049,-6.7947,-6.8044,-6.8045,-6.8089,-6.8086,-6.8388,-6.8115,-6.8115,-6.8114,-6.8113,0,-6.7534,-6.7644,-6.7619,-6.7693,-6.7812,-6.7779,-6.7897,-6.7904,-6.793,-6.8001,-6.7945,-6.8013,-6.7978,-6.8042,-6.8023,-6.8132,-6.8148,-6.8143,-6.8137,-6.8147,-6.8148,-6.8168,-6.8153,-6.8122,-6.812,-6.8119,-6.8117,0,-6.7769,-6.7758,-6.7883,-6.7903,-6.7911,-6.7998,-6.8014,-6.808,-6.8075,-6.8166,-6.8185,-6.8176,-6.8248,-6.8229,-6.8307,-6.8294,-6.8432,-6.8409,-6.8421,-6.8415,-6.8512,-6.8502,-6.8835,-6.8876,-6.8579,-6.8582,-6.8584,0,-6.792,-6.8003,-6.8032,-6.8077,-6.8097,-6.817,-6.8211,-6.8181,-6.8225,-6.8268,-6.8329,-6.8397,-6.845,-6.8568,-6.8566,-6.8625,-6.8602,-6.8715,-6.861,-6.8618,-6.8601,-6.8595,-6.8602,-6.8735,-6.8738,-6.8741,-6.8744,0,-6.8189,-6.8179,-6.8241,-6.8301,-6.8352,-6.8397,-6.8437,-6.8476,-6.8449,-6.8501,-6.8575,-6.8616,-6.8696,-6.8763,-6.8816,-6.8829,-6.8781,-6.8777,-6.8802,-6.8812,-6.8815,-6.8812,-6.8475,-6.8769,-6.8766,-6.8764,-6.8763,-6.8762,-6.8384,-6.8454,-6.8485,-6.8555,-6.8582,-6.8621,-6.8684,-6.8686,-6.8748,-6.8812,-6.879,-6.8874,-6.8902,-6.8969,-6.8989,-6.9053,-6.9009,-6.9046,-6.9055,-6.9064,-6.9075,-6.8807,-6.9062,-6.9062,-6.9061,-6.906,-6.906,0,-6.8648,-6.8664,-6.873,-6.8788,-6.8842,-6.8794,-6.8835,-6.8884,-6.8959,-6.899,-6.9043,-6.9126,-6.919,-6.9194,-6.9253,-6.9303,-6.9282,-6.9319,-6.9314,-6.9318,-6.9112,-6.9083,-6.9335,-6.9335,-6.9335,-6.9335,-6.9335,-6.9335,-6.8791,-6.8905,-6.8898,-6.9023,-6.9038,-6.9121,-6.9148,-6.9182,-6.9207,-6.9303,-6.9357,-6.9359,-6.9379,-6.9439,-6.9494,-6.9493,-6.9516,-6.9562,-6.9552,-6.936,-6.9332,-6.9306,-6.9279,-6.9568,-6.9568,-6.9752,-6.9754,-6.9755]}]]